VK2XSE Weather Reports


Display with metric or nautical units.
time (UTC)temp
F
wind
direction
speed
MPH
gust
MPH
rain 1hr
in
rain 24hr
in
rain mn
in
humidity
%
barometer
mb
20260906205017 43 248 1.0 2.0 0.00 0.00 0.00 91 1024.9
20260906204017 43 0.0 2.0 0.00 0.00 0.00 91 1024.7
20260906203017 43 0.0 2.0 0.00 0.00 0.00 90 1024.5
20260906202017 44 0.0 1.0 0.00 0.00 0.00 91 1024.6
20260906201017 45 0.0 2.0 0.00 0.00 0.00 91 1024.5
20260906200017 45 0.0 0.0 0.00 0.00 0.00 91 1024.2
20260906195017 45 0.0 2.0 0.00 0.00 0.00 91 1024.4
20260906194017 45 0.0 2.0 0.00 0.00 0.00 91 1024.5
20260906193017 46 248 1.0 1.0 0.00 0.00 0.00 91 1024.5
20260906192019 46 0.0 1.0 0.00 0.00 0.00 91 1024.4
20260906191017 46 0 1.0 2.0 0.00 0.00 0.00 91 1024.4
20260906190019 46 0 2.0 2.0 0.00 0.00 0.00 91 1024.2
20260906185019 46 0.0 2.0 0.00 0.00 0.00 91 1024.1
20260906184019 46 0 1.0 3.0 0.00 0.00 0.00 91 1023.9
20260906183018 46 248 2.0 2.0 0.00 0.00 0.00 90 1023.8
20260906182019 46 0.0 1.0 0.00 0.00 0.00 89 1023.7
20260906181018 46 0.0 1.0 0.00 0.00 0.00 89 1023.6
20260906180018 47 0.0 2.0 0.00 0.00 0.00 89 1023.6
20260906175018 47 293 1.0 1.0 0.00 0.00 0.00 89 1023.7
20260906174018 47 0.0 1.0 0.00 0.00 0.00 89 1023.3
20260906173018 47 0.0 1.0 0.00 0.00 0.00 88 1023.2
20260906172018 48 0.0 1.0 0.00 0.00 0.00 88 1023.2
20260906171018 48 0.0 2.0 0.00 0.00 0.00 87 1023.3
20260906170018 48 0.0 1.0 0.00 0.00 0.00 85 1023.2
20260906165018 48 0.0 2.0 0.00 0.00 0.00 85 1023.4
20260906164018 49 0.0 2.0 0.00 0.00 0.00 86 1023.4
20260906163018 50 0.0 2.0 0.00 0.00 0.00 86 1023.3
20260906162018 50 0.0 0.0 0.00 0.00 0.00 85 1023.4
20260906161018 51 0.0 0.0 0.00 0.00 0.00 85 1023.4
20260906160018 51 0.0 0.0 0.00 0.00 0.00 85 1023.5
20260906155018 51 0.0 2.0 0.00 0.00 0.00 85 1023.6
20260906154018 52 248 1.0 1.0 0.00 0.00 0.00 86 1023.7
20260906153018 52 0.0 2.0 0.00 0.00 0.00 85 1023.9
20260906152018 52 0.0 1.0 0.00 0.00 0.00 86 1024.0
20260906151018 52 0.0 2.0 0.00 0.00 0.00 86 1024.0
20260906150018 53 0.0 2.0 0.00 0.00 0.00 86 1023.9
20260906145018 53 248 1.0 3.0 0.00 0.00 0.00 85 1023.8
20260906144018 53 0.0 2.0 0.00 0.00 0.00 85 1023.8
20260906143018 53 0.0 1.0 0.00 0.00 0.00 85 1023.8
20260906142018 54 0.0 1.0 0.00 0.00 0.00 85 1023.8
20260906141018 54 0.0 2.0 0.00 0.00 0.00 84 1024.1
20260906140026 54 0.0 0.0 0.00 0.00 0.00 84 1024.0
20260906135018 54 0.0 2.0 0.00 0.00 0.00 84 1024.1
20260906134018 54 248 1.0 1.0 0.00 0.00 0.00 84 1024.0
20260906133018 54 0.0 2.0 0.00 0.00 0.00 84 1024.0
20260906132018 54 0.0 1.0 0.00 0.00 0.00 84 1024.1
20260906131018 54 0.0 2.0 0.00 0.00 0.00 84 1024.2
20260906130018 54 0.0 2.0 0.00 0.00 0.00 84 1024.4
20260906125018 54 0.0 0.0 0.00 0.00 0.00 83 1024.4
20260906124018 54 0.0 2.0 0.00 0.00 0.00 83 1024.4
20260906123018 54 0.0 2.0 0.00 0.00 0.00 83 1024.3
20260906122018 54 0.0 2.0 0.00 0.00 0.00 82 1024.3
20260906121018 54 0.0 2.0 0.00 0.00 0.00 82 1024.2
20260906120017 54 0.0 1.0 0.00 0.00 0.00 82 1024.1
20260906115017 54 0.0 2.0 0.00 0.00 0.00 82 1024.1
20260906114017 54 248 1.0 1.0 0.00 0.00 0.00 82 1024.0
20260906113017 54 0.0 2.0 0.00 0.00 0.00 81 1023.9
20260906112017 54 248 1.0 2.0 0.00 0.00 0.00 81 1023.7
20260906111017 53 248 1.0 1.0 0.00 0.00 0.00 81 1023.6
20260906110017 53 0.0 2.0 0.00 0.00 0.00 81 1023.5
20260906105017 54 0.0 1.0 0.00 0.00 0.00 79 1023.4
20260906104017 54 0.0 2.0 0.00 0.00 0.00 79 1023.3
20260906103017 54 0.0 1.0 0.00 0.00 0.00 78 1023.2
20260906102017 54 248 1.0 2.0 0.00 0.00 0.00 78 1023.2
20260906101017 54 0.0 2.0 0.00 0.00 0.00 78 1023.0
20260906100017 55 248 1.0 3.0 0.00 0.00 0.00 77 1023.1
20260906095017 56 248 1.0 2.0 0.00 0.00 0.00 76 1023.0
20260906094017 56 248 1.0 1.0 0.00 0.00 0.00 75 1022.9
20260906093017 56 0.0 2.0 0.00 0.00 0.00 75 1022.8
20260906092017 57 0.0 2.0 0.00 0.00 0.00 74 1022.7
20260906091017 58 203 1.0 2.0 0.00 0.00 0.00 72 1022.5
20260906090017 59 0.0 0.0 0.00 0.00 0.00 70 1022.4
20260906085017 59 0.0 2.0 0.00 0.00 0.00 69 1022.3
20260906084017 60 0.0 2.0 0.00 0.00 0.00 68 1022.2
20260906083017 60 0.0 2.0 0.00 0.00 0.00 66 1022.0
20260906082017 61 0.0 2.0 0.00 0.00 0.00 65 1022.0
20260906080017 62 248 1.0 2.0 0.00 0.00 0.00 61 1021.7
20260906075017 63 248 1.0 1.0 0.00 0.00 0.00 59 1021.6
20260906074017 64 248 1.0 3.0 0.00 0.00 0.00 58 1021.5
20260906073017 64 0 1.0 2.0 0.00 0.00 0.00 57 1021.3
20260906072017 65 225 2.0 8.0 0.00 0.00 0.00 56 1021.2
20260906071019 65 225 1.0 3.0 0.00 0.00 0.00 55 1021.3
20260906070019 66 248 1.0 4.0 0.00 0.00 0.00 54 1021.1
20260906065019 66 248 1.0 3.0 0.00 0.00 0.00 55 1021.0
20260906064019 66 248 1.0 3.0 0.00 0.00 0.00 54 1021.0
20260906063019 66 248 1.0 3.0 0.00 0.00 0.00 54 1020.9
20260906062019 67 225 2.0 5.0 0.00 0.00 0.00 53 1020.8
20260906061019 67 225 2.0 6.0 0.00 0.00 0.00 54 1020.8
20260906060019 67 180 1.0 4.0 0.00 0.00 0.00 53 1020.8
20260906055017 66 158 1.0 3.0 0.00 0.00 0.00 53 1020.8
20260906054019 66 203 2.0 5.0 0.00 0.00 0.00 54 1020.7
20260906053018 66 180 2.0 6.0 0.00 0.00 0.00 53 1020.7
20260906052019 67 180 4.0 9.0 0.00 0.00 0.00 52 1020.7
20260906051018 67 203 3.0 9.0 0.00 0.00 0.00 52 1020.7
20260906050018 67 248 2.0 3.0 0.00 0.00 0.00 51 1020.8
20260906045018 67 225 2.0 4.0 0.00 0.00 0.00 53 1021.0
20260906044018 67 225 1.0 3.0 0.00 0.00 0.00 53 1020.9
20260906043018 67 248 3.0 5.0 0.00 0.00 0.00 51 1020.9
20260906042018 67 225 2.0 7.0 0.00 0.00 0.00 54 1021.1
20260906041018 67 180 2.0 5.0 0.00 0.00 0.00 53 1021.1
20260906040018 67 0.0 2.0 0.00 0.00 0.00 54 1021.1
20260906035018 67 225 1.0 3.0 0.00 0.00 0.00 56 1021.2
20260906034018 66 203 1.0 3.0 0.00 0.00 0.00 53 1021.2
20260906033018 65 248 2.0 5.0 0.00 0.00 0.00 55 1021.3
20260906032018 65 270 3.0 8.0 0.00 0.00 0.00 55 1021.4
20260906031018 65 135 1.0 3.0 0.00 0.00 0.00 55 1021.5
20260906030018 65 158 2.0 5.0 0.00 0.00 0.00 56 1021.6
20260906025018 65 248 1.0 3.0 0.00 0.00 0.00 58 1021.5
20260906024018 65 225 2.0 7.0 0.00 0.00 0.00 58 1021.6
20260906023018 64 203 2.0 4.0 0.00 0.01 0.00 56 1021.8
20260906022019 64 293 1.0 5.0 0.00 0.02 0.00 60 1021.8
20260906021018 63 225 2.0 8.0 0.00 0.03 0.00 62 1021.9
20260906020018 63 293 2.0 4.0 0.00 0.04 0.00 62 1021.9
20260906015018 62 248 2.0 7.0 0.00 0.06 0.00 63 1021.8
20260906014018 62 248 3.0 7.0 0.00 0.06 0.00 62 1022.0
20260906013018 61 248 2.0 7.0 0.00 0.08 0.00 65 1022.0
20260906012018 61 248 3.0 8.0 0.00 0.09 0.00 67 1022.1
20260906011018 61 270 1.0 3.0 0.00 0.09 0.00 65 1022.2
20260906010018 60 248 4.0 9.0 0.00 0.09 0.00 68 1022.5
20260906005018 59 225 3.0 9.0 0.00 0.09 0.00 70 1022.4
20260906004018 58 248 3.0 8.0 0.00 0.09 0.00 72 1022.5
20260906003018 58 248 2.0 5.0 0.00 0.09 0.00 73 1022.5
20260906002018 57 225 2.0 4.0 0.00 0.09 0.00 74 1022.3
20260906001018 57 225 1.0 5.0 0.00 0.09 0.00 76 1022.3
20260906000018 56 248 3.0 8.0 0.00 0.09 0.00 77 1022.3
20260905235018 55 225 3.0 7.0 0.00 0.09 0.00 79 1022.5
20260905234018 54 0 2.0 5.0 0.00 0.09 0.00 81 1022.3
20260905233018 53 0 2.0 8.0 0.00 0.09 0.00 84 1022.4
20260905232018 52 248 3.0 7.0 0.00 0.09 0.00 84 1022.4
20260905231018 52 0 4.0 8.0 0.00 0.09 0.00 85 1022.3
20260905230028 51 0 3.0 11.0 0.00 0.09 0.00 86 1022.2
20260905225018 51 248 3.0 7.0 0.00 0.09 0.00 88 1022.0
20260905224017 50 248 2.0 6.0 0.00 0.09 0.00 89 1022.2
20260905223018 50 0 1.0 3.0 0.00 0.09 0.00 89 1022.1
20260905222018 49 0 2.0 4.0 0.00 0.09 0.00 90 1022.0
20260905221017 49 0 1.0 3.0 0.00 0.09 0.00 90 1021.9
20260905220017 49 248 3.0 5.0 0.00 0.09 0.00 91 1021.7
20260905215017 49 248 3.0 7.0 0.00 0.09 0.00 91 1021.5
20260905214017 49 248 3.0 7.0 0.00 0.09 0.00 91 1021.3
20260905213017 49 248 2.0 6.0 0.00 0.09 0.00 91 1021.2
20260905212018 49 248 2.0 4.0 0.00 0.09 0.00 91 1021.0
20260905211017 48 248 2.0 4.0 0.00 0.09 0.00 91 1020.8
20260905210017 48 248 2.0 6.0 0.00 0.09 0.00 91 1020.8